Mikoolu, Australia

11:51 PM AEST on April 30, 2017 (GMT +1000)
Mikoolu

Weather History for 94365 - December, 2013

Change the Weather History Date:

Monday, December 23, 2013

  Actual Average Record
Temperature  
Mean Temperature 78 °F -  
Max Temperature 87 °F - - ()
Min Temperature 68 °F - - ()
Cooling Degree Days 12    
Growing Degree Days 28 (Base 50)    
Moisture  
Dew Point 66 °F    
Average Humidity 68    
Maximum Humidity 94    
Minimum Humidity 35    
Precipitation  
Precipitation 0.00 in - - ()
Sea Level Pressure  
Sea Level Pressure 29.92 in    
Wind  
Wind Speed 6 mph ()    
Max Wind Speed 15 mph    
Max Gust Speed -    
Visibility 6.2 miles    
Events      
T = Trace of Precipitation, MM = Missing Value Source: Averaged Metar Reports

Daily Weather History Graph

Daily Weather History Graph

Search for Another Location

Airport or City:

Trip Planner

Search our weather history database for the weather conditions in past years. The results will help you decide how hot, cold, wet, or windy it might be!

Date:

Astronomy

Dec. 23, 2013 Rise Set
Actual Time 5:23 AM AEST 6:46 PM AEST
Civil Twilight 4:58 AM AEST 7:10 PM AEST
Nautical Twilight 4:29 AM AEST 7:40 PM AEST
Astronomical Twilight 3:58 AM AEST 8:10 PM AEST
Moon 10:38 PM AEST (12/23) 9:59 AM AEST (12/23)
Length of Visible Light 14h 12m
Length of Day
13h 22m
Waning Gibbous, 73% of the Moon is Illuminated
Dec 23
Waning Gibbous
Dec 25
Last Quarter
Jan 1
New
Jan 8
First Quarter
Jan 16
Full

Hourly Weather History & Observations

Time (AEST) Temp. Heat Index Dew Point Humidity Pressure Visibility Wind Dir Wind Speed Gust Speed Precip Events Conditions
12:00 AM 70 °F - 67 °F 88% 29.94 in - Calm Calm - -  
12:00 AM 69.8 °F - 68.0 °F 94% 29.92 in 6.2 mi Calm Calm - N/A   Scattered Clouds
1:00 AM 71.6 °F - 66.2 °F 83% 29.92 in 6.2 mi SSW 3.5 mph - N/A   Scattered Clouds
2:00 AM 69.8 °F - 66.2 °F 88% 29.89 in 6.2 mi SSW 5.8 mph - N/A   Unknown
3:00 AM 69 °F - 67 °F 89% 29.90 in - SW 3.5 mph - -  
3:00 AM 69.8 °F - 66.2 °F 88% 29.89 in 6.2 mi SW 3.5 mph - N/A   Mostly Cloudy
4:00 AM 69.8 °F - 68.0 °F 94% 29.89 in 6.2 mi Calm Calm - N/A   Mostly Cloudy
5:00 AM 69.8 °F - 68.0 °F 94% 29.89 in 6.2 mi SSW 5.8 mph - N/A   Mostly Cloudy
6:00 AM 71 °F - 69 °F 91% 29.93 in - SSW 5.8 mph - -   Overcast
6:00 AM 71.6 °F - 69.8 °F 94% 29.92 in 6.2 mi SSW 5.8 mph - N/A   Mostly Cloudy
7:00 AM 77.0 °F - 68.0 °F 74% 29.95 in 6.2 mi SSW 6.9 mph - N/A   Unknown
8:00 AM 78.8 °F - 68.0 °F 69% 29.95 in 6.2 mi East 3.5 mph - N/A   Mostly Cloudy
9:00 AM 83 °F - 64 °F 43% 29.95 in - ESE 12.7 mph - -  
9:00 AM 84.2 °F 85.6 °F 64.4 °F 51% 29.95 in 6.2 mi ESE 12.7 mph - N/A   Scattered Clouds
10:00 AM 86.0 °F 86.6 °F 62.6 °F 45% 29.95 in 6.2 mi ESE 13.8 mph - N/A   Mostly Cloudy
11:00 AM 86.0 °F 86.6 °F 62.6 °F 45% 29.92 in 6.2 mi ESE 12.7 mph - N/A   Unknown
12:00 PM 86 °F - 62 °F 35% 29.93 in - SE 13.8 mph - -  
12:00 PM 87.8 °F 89.4 °F 64.4 °F 46% 29.92 in 6.2 mi ESE 13.8 mph - N/A   Unknown
1:00 PM 87.8 °F 88.5 °F 62.6 °F 43% 29.89 in 6.2 mi ESE 13.8 mph - N/A   Unknown
2:00 PM 87.8 °F 88.5 °F 62.6 °F 43% 29.89 in 6.2 mi ESE 15.0 mph - N/A   Unknown
3:00 PM 87 °F - 66 °F 40% 29.88 in - ESE 13.8 mph - -  
3:00 PM 87.8 °F 90.4 °F 66.2 °F 49% 29.86 in 6.2 mi ESE 15.0 mph - N/A   Unknown
4:00 PM 86.0 °F 87.3 °F 64.4 °F 48% 29.86 in 6.2 mi East 12.7 mph - N/A   Unknown
5:00 PM 84.2 °F 86.6 °F 66.2 °F 55% 29.89 in 6.2 mi ESE 15.0 mph - N/A   Unknown
6:00 PM 81 °F - 66 °F 51% 29.90 in - ESE 12.7 mph - -  
6:00 PM 80.6 °F 82.7 °F 66.2 °F 61% 29.89 in 6.2 mi ESE 12.7 mph - N/A   Unknown
7:00 PM 78.8 °F - 66.2 °F 65% 29.92 in 6.2 mi East 8.1 mph - N/A   Unknown
8:00 PM 75.2 °F - 66.2 °F 73% 29.92 in 6.2 mi East 3.5 mph - N/A   Unknown
9:00 PM 73 °F - 66 °F 73% 29.94 in - ESE 1.2 mph - -  
9:00 PM 73.4 °F - 66.2 °F 78% 29.95 in 6.2 mi ESE 2.3 mph - N/A   Unknown
10:00 PM 71.6 °F - 66.2 °F 83% 29.95 in 6.2 mi Calm Calm - N/A   Unknown
11:00 PM 69.8 °F - 66.2 °F 88% 29.95 in 6.2 mi Calm Calm - N/A   Scattered Clouds